Theta_e
314 313 313 313 314 315 319 318 318 317 314 313 312 317 321 319 317 317 317 317 315 315 316 319 320 320 320 321 320 319 314 317 317 316 318 319 318 320 320 319 315 315 315 318 321
313 313 314 315 315 314 316 319 318 317 316 312 316 321 321 319 318 316 316 316 316 315 320 320 319 320 320 321 321 317 316 320 319 318 319 319 319 318 318 315 312 314 315 319 321
313 314 315 315 315 315 314 318 317 317 318 315 318 321 322 323 318 317 315 315 316 315 319 319 319 319 319 320 321 318 317 318 320 320 320 319 315 317 315 309 309 310 311 315 319
314 315 315 315 316 316 314 318 317 317 318 317 320 321 318 325 316 317 316 316 317 319 320 320 319 319 319 319 320 319 319 320 320 318 319 318 312 310 310 310 309 310 311 313 314
315 315 316 316 317 316 315 317 316 317 318 318 320 321 319 318 317 317 317 317 320 320 320 320 320 319 318 318 318 318 318 319 319 318 316 314 311 309 309 308 309 310 310 309 309
315 315 315 317 317 316 316 316 316 317 319 319 320 320 318 317 317 318 318 317 317 319 320 320 320 319 319 318 318 318 318 317 318 316 315 312 311 311 309 307 308 308 306 306 305
314 315 317 317 317 316 316 317 318 319 319 319 319 319 318 318 317 317 319 319 318 318 319 318 317 318 318 318 319 319 317 316 316 316 313 314 310 308 306 307 306 306 305 305 305
314 316 318 317 317 317 318 318 319 318 319 319 319 318 318 318 317 319 318 319 318 319 319 318 318 318 319 319 317 315 313 317 316 317 316 315 310 308 306 308 305 305 305 304 303
314 317 318 317 318 319 319 319 319 319 320 320 319 318 318 319 318 314 317 319 319 319 319 319 319 318 317 314 313 311 315 317 318 316 315 312 309 307 305 305 304 305 304 303 302
316 317 319 318 318 319 319 319 319 320 321 319 318 318 319 319 319 314 317 320 319 319 319 319 317 312 310 311 314 316 316 316 317 313 309 309 308 306 304 305 304 303 303 302 300
317 318 318 318 319 319 318 319 319 318 318 319 319 318 319 319 318 315 318 318 318 318 314 316 312 314 313 312 314 315 315 313 314 312 312 309 307 305 304 304 303 303 301 299 299
315 318 318 319 319 320 322 324 319 318 317 317 318 318 318 318 316 315 316 317 315 313 314 312 313 312 312 311 311 311 313 312 310 311 310 307 306 304 304 303 301 299 299 299 299
314 316 318 320 320 319 320 319 319 319 319 319 316 318 317 318 314 314 315 316 313 313 311 312 313 312 312 310 311 310 312 311 311 310 308 307 308 305 303 299 298 299 299 299 298
315 315 318 318 318 318 319 320 319 319 312 315 316 317 315 319 313 315 314 314 313 314 315 311 311 312 311 312 311 311 311 311 311 310 310 310 309 306 303 298 297 298 299 298 298
314 315 316 319 318 319 318 319 318 320 314 316 316 317 315 314 313 315 313 315 312 313 311 312 311 311 311 311 310 311 309 308 309 309 310 310 308 306 304 297 296 298 298 298 297
314 315 315 316 318 318 318 318 318 311 316 316 315 314 313 314 314 314 312 314 312 311 310 311 311 311 311 310 310 308 308 308 307 307 310 310 308 306 299 297 297 298 298 297 297
314 316 316 316 318 317 317 317 313 314 315 315 313 313 313 311 312 312 311 309 309 310 309 310 311 310 310 309 308 306 305 306 307 306 309 305 306 302 297 297 298 298 298 297 297
315 315 315 316 319 318 317 313 315 316 316 315 313 315 314 311 311 310 310 310 308 308 308 310 312 310 310 309 309 308 306 305 307 305 304 306 306 296 296 298 298 298 297 297 297
316 316 317 316 316 319 320 318 317 316 314 314 314 313 313 313 313 310 309 309 309 307 310 309 311 308 310 309 308 308 307 306 307 305 304 306 303 296 297 297 297 297 296 296 296
317 318 319 321 320 320 315 316 315 314 314 313 315 312 314 313 313 311 310 308 308 308 307 309 309 308 309 310 309 308 306 306 303 305 304 302 303 300 295 296 296 296 296 296 296
319 318 319 323 322 319 315 315 313 314 314 313 313 313 313 313 312 311 310 308 307 307 307 305 307 308 306 307 307 304 305 304 302 301 304 302 299 297 296 295 295 296 295 295 294
320 315 320 323 320 315 315 315 315 314 314 314 313 313 313 311 311 312 311 309 307 307 307 303 303 304 307 305 305 304 303 300 301 301 300 299 298 296 296 297 297 296 295 294 293
318 319 320 323 314 313 315 313 314 314 312 313 313 313 312 311 313 311 309 307 305 304 301 302 301 302 302 302 300 300 298 299 297 295 297 298 297 294 295 296 296 296 294 293 291
319 315 319 320 317 314 313 315 313 312 312 312 312 312 312 312 309 310 310 307 305 303 303 302 300 302 300 301 299 299 298 299 297 296 295 296 294 293 294 295 296 296 294 292 290
323 318 317 316 316 315 315 314 314 312 311 312 311 311 311 311 310 309 308 304 303 302 302 299 299 299 298 298 299 299 298 297 296 295 296 294 293 294 294 294 296 295 292 290 289
320 320 317 315 316 314 314 315 313 309 311 310 311 309 308 308 307 306 305 303 302 301 299 298 298 298 298 298 297 297 297 296 295 295 294 294 295 295 296 296 295 292 290 289 288
319 320 320 312 314 315 313 313 312 308 307 308 309 306 305 303 303 302 302 301 301 300 298 298 298 296 296 296 297 297 295 294 295 294 294 295 295 295 296 295 294 291 289 288 286
Wind_Speed
8 7 7 7 7 7 8 9 9 10 11 14 18 20 18 16 15 10 7 5 3 4 7 9 9 7 3 2 2 2 4 2 5 3 2 9 9 15 7 16 31 15 22 18 12
7 7 7 6 5 5 7 8 10 11 12 16 19 17 15 14 13 20 11 6 4 6 7 5 5 1 3 2 1 4 3 3 1 1 1 4 8 10 9 21 19 24 24 22 14
7 7 5 5 3 4 7 8 10 11 13 16 15 12 8 5 7 16 11 8 7 7 4 3 3 1 2 1 2 3 4 4 4 2 3 4 18 7 14 10 15 18 26 26 25
7 6 5 6 4 4 8 9 11 11 14 15 13 11 10 5 3 11 8 11 11 9 6 4 3 2 2 3 2 2 6 2 2 6 2 7 20 21 29 13 19 25 28 26 31
8 7 6 6 4 7 11 11 12 13 15 15 11 8 9 15 10 11 7 7 8 6 4 4 4 2 1 3 5 3 2 2 5 3 13 22 17 22 24 20 24 27 30 33 32
9 8 8 8 9 13 15 14 15 18 17 13 12 10 11 17 15 10 10 9 6 4 3 3 3 5 4 3 1 4 6 7 2 12 12 15 8 8 13 20 29 32 34 34 35
8 9 9 11 15 18 17 18 21 20 20 16 20 23 25 12 15 16 7 7 8 6 3 4 5 4 5 5 7 5 5 6 7 11 8 17 10 9 15 25 30 30 30 30 32
8 10 11 14 18 19 19 20 20 17 16 15 18 19 14 16 15 12 11 7 7 6 7 6 6 4 5 7 5 5 5 5 5 4 3 5 5 11 9 20 26 27 27 27 30
9 10 13 17 19 20 20 18 15 14 13 9 8 11 5 9 14 19 11 8 5 5 4 5 5 7 11 4 5 8 2 4 7 11 3 6 7 8 14 29 26 25 26 27 31
10 12 15 19 22 23 24 22 17 11 7 11 11 6 10 10 10 21 5 8 8 11 5 5 7 5 6 7 1 3 2 4 3 6 10 13 10 12 15 30 24 25 26 29 34
11 13 17 22 25 26 22 20 10 13 25 16 11 12 13 6 10 24 7 10 12 9 5 7 8 4 5 3 1 3 2 3 2 3 2 8 12 7 13 25 24 26 31 33 34
10 11 17 20 20 14 6 3 8 14 12 18 18 12 12 11 7 30 15 5 11 4 3 7 5 6 2 5 6 5 3 4 6 6 7 11 9 7 11 16 23 25 31 31 33
8 9 14 18 9 3 8 20 16 8 7 9 12 15 15 8 11 21 20 6 6 7 8 7 4 7 5 6 8 4 3 2 6 4 7 14 5 5 8 22 27 31 30 34 36
8 8 10 12 6 6 16 15 8 2 5 10 9 10 18 3 7 16 18 6 7 3 2 6 6 4 5 3 3 3 4 5 4 1 3 3 2 2 5 11 18 26 27 32 36
6 6 7 8 8 13 14 10 2 1 5 7 6 7 14 9 4 16 15 7 4 4 5 1 5 6 6 6 3 6 12 7 2 5 2 4 5 2 2 9 8 18 24 29 34
6 5 6 7 8 11 15 6 1 5 3 3 5 7 5 9 7 6 18 8 8 5 7 3 3 3 3 4 2 10 6 4 3 3 2 0 5 2 3 2 4 14 22 28 32
6 5 5 6 7 12 12 3 5 6 4 5 3 4 2 6 6 7 5 13 6 6 7 5 3 5 4 5 6 10 7 4 5 5 4 3 6 3 3 1 5 10 18 27 30
7 6 6 6 10 12 11 4 8 1 1 1 2 2 5 7 5 7 4 6 6 6 4 5 6 7 8 1 3 4 3 4 4 4 5 5 4 4 4 6 10 11 18 23 31
8 8 8 8 10 10 2 6 4 2 1 1 2 5 5 5 3 6 5 4 4 6 4 5 4 5 1 3 2 6 6 1 2 1 1 3 5 0 2 3 13 15 23 23 28
10 10 9 7 7 6 5 5 3 1 2 1 3 2 2 6 4 5 3 4 5 5 2 1 3 2 5 3 5 4 1 4 4 5 5 3 1 3 6 8 9 16 22 24 25
9 4 5 5 6 6 4 3 3 2 1 3 2 3 3 3 2 3 2 1 5 7 5 2 1 4 1 5 3 5 3 4 2 3 3 4 1 3 4 5 7 17 23 27 25
5 3 3 3 5 5 3 5 5 2 5 4 5 3 2 2 3 3 3 1 5 4 3 1 2 4 3 5 3 2 3 3 3 6 3 2 2 7 1 5 10 17 22 23 19
5 4 5 3 4 2 3 4 4 2 4 3 2 2 1 3 3 3 3 2 5 4 1 3 1 4 5 4 5 5 3 2 1 2 3 2 3 3 7 10 22 23 22 21 24
5 3 3 6 8 8 5 3 3 4 3 5 3 2 2 2 4 5 3 2 1 2 1 1 1 4 5 1 1 5 6 3 2 1 4 3 9 10 11 11 26 30 25 27 28
4 2 4 2 2 8 5 5 4 3 3 3 3 2 3 3 2 2 3 0 1 2 3 3 2 3 5 4 2 3 3 4 4 2 1 6 6 6 8 12 21 23 19 20 28
7 7 6 7 9 8 4 3 4 3 2 1 5 2 1 4 1 6 3 2 2 2 2 3 1 5 5 3 5 4 3 4 4 2 4 6 7 6 18 19 24 16 16 25 27
8 15 9 2 4 4 2 3 5 12 3 5 7 4 3 4 6 7 6 6 4 3 1 2 2 2 4 5 1 2 1 3 2 4 3 3 6 13 17 20 26 18 18 24 24
Wind_Direction
49 52 59 57 49 62 74 84 98 102 101 110 117 116 113 105 84 70 47 35 55 94 105 99 92 94 53 28 41 55 58 38 350 37 322 2 21 20 34 61 59 68 63 61 60
43 35 38 48 55 68 92 102 109 113 109 114 122 120 113 108 62 39 31 39 73 119 126 91 50 29 7 335 111 86 95 213 265 201 148 30 31 356 40 53 53 64 68 70 72
32 28 26 31 47 91 112 109 114 120 118 120 125 122 122 126 57 20 35 53 89 118 128 99 59 55 335 239 216 151 169 207 326 172 42 39 52 40 106 40 52 68 63 66 76
31 29 32 20 27 106 120 118 117 122 122 123 116 100 73 141 67 19 48 68 94 106 78 57 30 25 8 333 274 149 251 237 329 359 34 84 91 60 81 93 83 77 72 69 65
31 34 34 25 67 112 125 121 117 118 121 118 108 96 77 75 46 39 48 79 108 109 78 49 68 36 241 286 328 182 311 315 308 38 77 99 92 96 81 88 80 75 66 66 66
35 43 35 62 91 115 121 117 113 115 111 103 97 97 89 73 42 40 53 55 66 82 81 26 355 323 285 298 62 326 281 296 319 79 104 98 87 79 82 86 73 68 66 63 57
45 49 67 84 105 115 112 110 115 114 114 100 91 84 66 66 49 37 34 47 51 48 26 2 356 352 330 335 340 299 347 11 38 147 156 101 37 73 100 85 74 69 65 60 51
56 56 88 99 112 113 106 114 112 109 102 94 100 80 75 58 34 32 29 18 18 36 33 16 7 25 354 314 18 28 50 40 342 8 74 109 105 68 101 87 77 70 63 56 47
64 76 100 108 116 117 110 108 99 103 90 86 101 88 58 29 28 17 5 18 40 33 5 10 45 45 17 39 25 14 38 7 345 18 334 68 129 110 98 90 76 68 61 50 43
64 97 112 119 119 114 105 98 90 100 97 88 88 87 32 356 10 5 27 27 14 5 45 47 51 57 22 35 33 310 340 305 259 339 54 84 87 65 69 78 71 62 52 48 40
69 111 126 128 128 127 121 116 105 68 68 72 78 73 36 48 35 25 73 64 46 50 40 33 61 19 334 307 257 243 268 279 308 15 60 98 86 67 68 69 63 52 46 40 31
89 112 143 139 138 148 159 149 133 125 81 63 65 64 43 28 34 23 34 76 50 30 26 33 37 324 108 31 39 19 358 343 299 7 64 92 77 64 61 60 57 55 43 34 21
102 111 154 162 144 100 138 127 124 122 87 39 34 32 19 27 32 14 18 32 63 47 41 98 324 10 55 22 18 337 129 263 239 334 79 120 98 104 66 65 54 46 40 27 21
105 126 141 176 190 163 145 137 116 108 77 336 359 18 3 101 40 16 16 25 38 67 99 74 355 45 35 45 56 322 215 267 254 353 209 190 193 117 91 67 47 38 31 20 14
105 113 151 176 161 157 160 155 105 101 61 317 355 356 32 72 333 11 5 69 64 331 66 286 13 22 11 330 321 271 302 285 177 169 60 348 82 319 28 41 14 20 27 17 10
117 121 135 148 165 167 168 162 336 47 59 348 6 8 23 27 26 29 25 49 42 63 35 37 29 56 307 322 358 300 341 45 75 119 40 160 127 290 40 36 337 19 21 9 6
132 111 138 167 157 166 174 178 42 74 320 352 353 10 75 353 27 35 33 37 31 16 12 341 2 344 7 6 350 17 20 359 1 6 231 72 51 84 125 69 36 18 15 2 360
144 108 114 134 142 151 159 64 72 173 45 203 4 19 59 17 25 23 58 29 16 31 59 33 345 3 343 61 276 344 57 98 317 285 280 357 141 166 171 89 33 35 7 2 1
146 115 95 116 141 155 182 56 157 205 299 39 60 68 359 1 72 81 63 29 19 16 81 10 292 320 356 339 23 329 38 204 234 330 19 138 96 343 182 30 23 10 358 358 359
153 114 77 97 132 147 77 125 132 33 357 118 103 30 72 353 45 62 35 329 327 10 326 331 301 267 309 350 22 85 289 4 8 315 300 331 95 303 359 359 354 348 349 351 351
166 130 65 96 103 73 100 124 125 67 185 75 120 79 74 40 52 59 353 345 339 321 30 15 96 283 45 25 309 347 26 45 176 143 260 307 342 66 28 351 322 344 350 351 348
170 84 79 100 57 53 84 126 123 115 64 72 89 84 97 62 63 100 143 204 355 321 338 38 135 280 228 301 346 45 92 92 88 296 252 201 257 108 85 317 337 349 350 348 346
130 104 61 88 117 77 103 66 78 77 33 70 92 54 148 117 109 119 161 161 19 36 28 338 5 331 6 4 4 40 39 155 134 58 237 267 301 167 345 335 352 348 348 350 349
146 83 63 70 91 122 130 121 106 57 75 75 119 94 98 93 23 149 147 193 45 75 52 331 155 187 220 239 25 307 326 325 120 103 311 275 304 333 341 341 340 337 340 348 352
147 124 133 135 49 115 109 130 129 119 84 77 64 87 156 138 87 115 128 134 61 33 30 79 245 318 276 306 278 285 2 37 86 358 134 282 289 295 318 308 324 325 340 350 351
154 142 103 91 113 97 29 132 135 124 72 96 135 135 51 135 203 191 138 118 112 75 68 2 286 23 301 63 9 89 35 81 91 357 279 314 295 281 317 325 329 332 349 352 350
161 144 142 49 88 94 172 137 156 131 67 99 149 106 70 137 108 94 91 99 117 125 83 77 80 73 271 346 125 34 45 57 298 262 260 305 273 308 322 326 327 334 348 348 344